EW4543 Weather Reports


Display with metric or nautical units.
time (UTC)temp
F
wind
direction
speed
MPH
gust
MPH
rain 1hr
in
rain 24hr
in
rain mn
in
humidity
%
barometer
mb
20260831151604 57 181 0.0 0.0 0.00 0.14 0.00 72 1007.8
20260831150050 56 181 0.0 0.0 0.00 0.14 0.00 75 1007.6
20260831144548 55 181 0.0 0.0 0.00 0.14 0.00 75 1007.4
20260831143048 54 182 0.0 0.0 0.00 0.14 0.00 76 1007.2
20260831141547 53 182 0.0 0.0 0.00 0.14 0.00 76 1007.0
20260831140052 53 182 0.0 0.0 0.00 0.14 0.00 76 1006.8
20260831134544 53 182 0.0 0.0 0.00 0.14 0.00 78 1006.7
20260831133031 53 183 0.0 0.0 0.00 0.14 0.00 79 1006.6
20260831131529 53 182 0.0 0.0 0.00 0.14 0.00 83 1006.6
20260831130026 53 182 0.0 0.0 0.00 0.14 0.00 81 1006.7
20260831124526 53 180 0.0 0.0 0.00 0.14 0.00 83 1006.6
20260831123030 52 169 0.0 0.0 0.00 0.14 0.00 76 1006.7
20260831121527 53 169 0.0 0.0 0.00 0.14 0.00 75 1006.8
20260831120018 53 169 0.0 0.0 0.00 0.14 0.00 73 1006.7
20260831114520 53 169 0.0 0.0 0.00 0.14 0.00 73 1006.7
20260831113015 53 169 0.0 0.0 0.00 0.14 0.00 73 1006.8
20260831111514 54 169 0.0 0.0 0.00 0.14 0.00 73 1006.8
20260831110013 53 169 0.0 0.0 0.00 0.14 0.00 73 1006.8
20260831104617 54 169 0.0 0.0 0.00 0.14 0.00 72 1006.9
20260831103011 54 169 0.0 0.0 0.00 0.14 0.00 72 1006.9
20260831101510 54 169 0.0 0.0 0.00 0.14 0.00 71 1006.9
20260831100008 54 169 0.0 0.0 0.00 0.14 0.00 69 1006.9
20260831094507 54 169 0.0 0.0 0.00 0.14 0.00 70 1006.8
20260831093004 54 169 0.0 0.0 0.00 0.14 0.00 68 1006.7
20260831091506 55 169 0.0 0.0 0.00 0.14 0.00 67 1006.9
20260831090002 55 169 0.0 0.0 0.00 0.14 0.00 67 1006.8
20260831084610 55 169 0.0 0.0 0.00 0.14 0.00 66 1006.9
20260831083056 56 169 0.0 0.0 0.00 0.14 0.00 66 1007.1
20260831081555 56 169 0.0 0.0 0.00 0.14 0.00 64 1007.2
20260831080103 56 169 0.0 0.0 0.00 0.14 0.00 64 1007.2
20260831074552 57 169 0.0 0.0 0.00 0.14 0.00 63 1007.3
20260831073052 57 169 0.0 0.0 0.00 0.14 0.00 62 1007.3
20260831071548 57 169 0.0 0.0 0.00 0.14 0.00 62 1007.2
20260831070048 58 169 0.0 0.0 0.00 0.14 0.00 61 1007.2
20260831064544 59 169 0.0 0.0 0.00 0.14 0.14 61 1007.2
20260831063044 59 169 0.0 0.0 0.00 0.14 0.14 61 1007.2
20260831061544 59 169 0.0 0.0 0.00 0.14 0.14 59 1007.3
20260831060043 60 169 0.0 0.0 0.00 0.14 0.14 59 1007.4
20260831054543 61 169 0.0 0.0 0.00 0.14 0.14 57 1007.4
20260831053043 61 169 0.0 0.0 0.00 0.14 0.14 56 1007.5
20260831051546 62 169 0.0 0.0 0.00 0.14 0.14 54 1007.5
20260831050042 63 169 0.0 0.0 0.00 0.14 0.14 52 1007.6
20260831044551 64 169 0.0 0.0 0.00 0.14 0.14 51 1007.5
20260831043040 64 169 0.0 0.0 0.00 0.14 0.14 48 1007.5
20260831041548 65 169 0.0 0.0 0.00 0.14 0.14 46 1007.4
20260831040040 66 169 0.0 0.0 0.00 0.14 0.14 44 1007.3
20260831034538 67 169 0.0 0.0 0.00 0.14 0.14 42 1007.1
20260831033038 69 169 0.0 0.0 0.00 0.14 0.14 41 1007.0
20260831031539 70 169 0.0 0.0 0.00 0.14 0.14 39 1006.9
20260831030032 71 169 0.0 0.0 0.01 0.14 0.14 38 1006.8
20260831024533 73 169 0.0 0.0 0.01 0.14 0.14 36 1006.7
20260831023032 75 169 0.0 0.0 0.01 0.14 0.14 35 1006.6
20260831021536 77 169 0.0 0.0 0.01 0.14 0.14 34 1006.6
20260831020028 79 169 0.0 0.0 0.00 0.13 0.13 32 1006.5
20260831014528 80 169 0.0 0.0 0.01 0.14 0.13 30 1006.6
20260831013028 82 169 0.0 1.0 0.01 0.14 0.13 29 1006.5
20260831011526 82 202 0.0 2.0 0.02 0.14 0.13 27 1006.6
20260831010024 83 256 0.0 1.0 0.02 0.14 0.13 27 1006.6
20260831004524 83 233 0.0 1.0 0.01 0.13 0.12 28 1006.6
20260831003022 83 214 1.0 3.0 0.01 0.13 0.12 27 1006.7
20260831001521 84 126 0.0 3.0 0.00 0.12 0.11 26 1006.8
20260831000034 84 297 0.0 3.0 0.01 0.12 0.11 27 1006.8
20260830234520 84 305 1.0 4.0 0.02 0.14 0.11 26 1006.8
20260830233021 84 236 1.0 3.0 0.04 0.14 0.11 27 1007.0
20260830231517 84 224 0.0 4.0 0.05 0.14 0.11 27 1007.1
20260830230016 85 135 1.0 3.0 0.04 0.13 0.10 26 1007.1
20260830224515 84 247 1.0 6.0 0.04 0.14 0.09 26 1007.2
20260830223013 87 180 2.0 5.0 0.02 0.12 0.07 24 1007.3
20260830221511 87 146 1.0 4.0 0.01 0.11 0.06 25 1007.5
20260830220012 86 128 0.0 5.0 0.01 0.11 0.06 25 1007.7
20260830214646 87 110 1.0 5.0 0.00 0.12 0.05 24 1007.8
20260830213011 85 210 1.0 6.0 0.00 0.12 0.05 26 1007.9
20260830211514 87 255 1.0 5.0 0.00 0.12 0.05 26 1008.1
20260830210007 86 306 2.0 6.0 0.01 0.12 0.05 26 1008.1
20260830204506 86 248 1.0 4.0 0.01 0.17 0.05 26 1008.1
20260830203005 86 200 1.0 4.0 0.03 0.17 0.05 26 1008.2
20260830201600 86 222 1.0 4.0 0.03 0.17 0.05 26 1008.3
20260830200058 86 132 1.0 4.0 0.02 0.16 0.04 27 1008.3
20260830194557 84 225 0.0 5.0 0.02 0.16 0.04 27 1008.3
20260830193056 84 209 0.0 7.0 0.01 0.14 0.02 28 1008.4
20260830191553 83 143 2.0 4.0 0.01 0.14 0.02 28 1008.5
20260830190053 83 44 1.0 3.0 0.02 0.14 0.02 29 1008.7
20260830184549 83 233 0.0 4.0 0.02 0.14 0.02 30 1008.7
20260830183049 83 304 1.0 4.0 0.01 0.13 0.01 29 1008.8
20260830181548 83 230 1.0 3.0 0.01 0.13 0.01 29 1008.9
20260830180048 81 158 0.0 3.0 0.00 0.12 0.00 31 1008.9
20260830174542 79 233 0.0 2.0 0.00 0.12 0.00 32 1008.9
20260830173041 79 294 0.0 3.0 0.00 0.12 0.00 33 1008.9
20260830171538 79 138 1.0 3.0 0.00 0.12 0.00 33 1008.8
20260830170035 78 173 0.0 1.0 0.00 0.12 0.00 36 1008.8
20260830164553 76 138 0.0 2.0 0.00 0.12 0.00 41 1008.8
20260830163028 73 115 0.0 1.0 0.00 0.12 0.00 42 1008.8
20260830161521 69 141 0.0 1.0 0.00 0.12 0.00 47 1008.7
20260830160018 66 209 0.0 0.0 0.00 0.12 0.00 53 1008.7
20260830154513 63 209 0.0 0.0 0.00 0.12 0.00 57 1008.8
20260830153009 60 209 0.0 1.0 0.00 0.12 0.00 60 1008.8